Total_Precipitation_Accumulation
0.21 0.28 0.30 0.34 0.28 0.21 0.18 0.18 0.33 0.42 0.57 0.72 0.68 0.77 1.05 0.89 0.78 0.70 0.70 0.62 0.60 0.69 0.87 0.99 1.01 1.00 1.09 1.23 1.36 1.51 1.65 1.80 2.05 2.34 2.20 1.95 1.90 1.86 1.82 1.90 2.04 2.34 2.49 2.58
0.18 0.24 0.27 0.30 0.30 0.24 0.21 0.19 0.20 0.32 0.54 0.63 0.72 0.76 0.84 0.84 0.87 0.86 0.80 0.79 0.80 0.94 0.98 1.04 1.12 1.06 1.02 1.08 1.20 1.41 1.58 1.72 1.89 2.03 1.87 1.68 1.58 1.62 1.66 1.78 1.98 2.17 2.29 2.40
0.30 0.26 0.30 0.35 0.31 0.29 0.24 0.29 0.29 0.40 0.54 0.62 0.82 0.78 0.76 0.92 1.00 0.94 0.78 0.83 0.88 0.95 1.10 1.06 1.06 1.05 1.06 1.15 1.34 1.54 1.60 1.62 1.74 1.85 1.89 1.80 1.60 1.64 1.73 1.83 1.95 2.05 2.09 2.11
0.47 0.48 0.58 0.44 0.39 0.35 0.33 0.38 0.39 0.45 0.54 0.62 0.80 0.79 0.69 0.73 0.79 0.88 0.91 0.99 0.97 0.98 1.05 1.00 0.98 1.06 1.09 1.11 1.36 1.59 1.64 1.69 1.83 1.98 2.01 1.99 1.94 1.92 2.02 2.08 2.06 2.06 2.10 2.12
0.68 0.66 0.57 0.55 0.53 0.54 0.60 0.76 0.70 0.62 0.61 0.65 0.65 0.75 0.84 0.73 0.70 0.83 0.93 1.13 1.16 1.07 1.16 1.20 1.26 1.30 1.32 1.32 1.49 1.70 1.80 1.86 1.96 2.11 2.18 2.22 2.30 2.34 2.41 2.41 2.26 2.22 2.30 2.32
0.77 0.86 0.83 0.79 0.65 0.60 0.78 1.26 1.14 0.90 0.79 0.73 0.74 1.10 1.30 1.14 0.98 0.92 0.91 1.08 1.30 1.28 1.15 1.21 1.29 1.42 1.58 1.65 1.75 1.84 1.98 2.12 2.18 2.33 2.47 2.45 2.56 2.71 2.86 2.89 2.74 2.74 2.61 2.44
0.83 0.94 0.99 0.89 0.68 0.72 1.33 1.71 1.34 1.14 1.11 1.05 1.11 1.15 1.21 1.10 1.01 0.99 0.97 1.02 1.19 1.40 1.27 1.24 1.36 1.54 1.74 1.85 2.04 2.13 2.22 2.29 2.35 2.51 2.67 2.81 3.01 3.20 3.24 3.18 3.16 3.04 2.75 2.62
1.02 1.26 1.35 0.89 0.86 1.21 1.53 1.33 1.34 1.41 1.56 1.53 1.28 1.03 1.01 1.06 0.98 0.98 0.97 0.99 1.02 1.11 1.23 1.31 1.42 1.72 1.91 1.93 2.01 2.17 2.30 2.41 2.56 2.68 2.71 2.83 3.20 3.34 3.34 3.30 3.15 2.97 2.83 2.62
1.27 1.45 1.22 1.00 1.13 1.20 1.33 1.41 1.45 1.53 1.61 1.49 1.26 1.10 1.09 1.12 1.03 0.97 0.93 0.98 1.02 1.07 1.21 1.36 1.56 1.82 2.12 2.19 2.14 2.13 2.26 2.43 2.61 2.75 2.97 3.19 3.37 3.35 3.31 3.28 3.15 2.97 2.82 2.59
1.47 1.48 1.21 1.18 1.24 1.21 1.31 1.38 1.50 1.46 1.43 1.41 1.34 1.20 1.19 1.12 1.02 1.02 1.05 1.07 1.07 1.18 1.35 1.50 1.69 1.88 2.16 2.12 2.06 2.11 2.14 2.28 2.41 2.51 2.59 2.75 3.00 2.99 2.86 2.83 2.89 2.89 2.81 2.67
1.71 1.72 1.62 1.57 1.55 1.46 1.41 1.36 1.38 1.41 1.36 1.40 1.40 1.37 1.22 1.19 1.15 1.05 1.06 1.18 1.19 1.32 1.55 1.62 1.72 1.82 1.87 1.85 1.88 1.91 1.93 2.00 2.06 2.12 2.21 2.33 2.45 2.57 2.56 2.54 2.53 2.55 2.54 2.49
2.05 1.86 1.80 2.01 1.90 1.71 1.51 1.46 1.53 1.48 1.40 1.41 1.44 1.48 1.33 1.25 1.22 1.10 1.10 1.22 1.36 1.45 1.60 1.69 1.88 2.01 1.99 1.95 2.03 2.05 1.96 1.93 1.95 2.01 2.06 2.08 2.17 2.23 2.26 2.15 2.02 1.91 1.86 1.84
1.84 1.73 1.70 1.79 1.78 1.64 1.51 1.51 1.64 1.70 1.60 1.49 1.48 1.47 1.39 1.28 1.24 1.20 1.20 1.28 1.40 1.44 1.51 1.64 1.78 1.87 2.01 2.18 2.30 2.33 2.23 2.13 2.04 1.97 1.98 2.01 2.04 2.13 2.12 2.02 1.87 1.70 1.58 1.50
1.86 1.82 1.81 1.72 1.70 1.58 1.44 1.48 1.59 1.56 1.59 1.54 1.52 1.50 1.41 1.27 1.27 1.33 1.33 1.40 1.51 1.57 1.59 1.65 1.75 1.81 1.86 2.10 2.31 2.39 2.33 2.24 2.08 1.96 1.92 1.92 1.94 1.98 2.07 2.15 2.07 1.89 1.65 1.46
2.19 2.08 1.96 1.91 1.86 1.73 1.51 1.47 1.52 1.52 1.48 1.52 1.55 1.61 1.57 1.48 1.43 1.44 1.41 1.40 1.51 1.62 1.68 1.71 1.73 1.74 1.87 2.00 2.15 2.19 2.15 2.05 1.92 1.87 1.88 1.89 1.95 1.99 1.96 2.01 2.00 1.95 1.79 1.60
2.18 2.08 1.92 1.91 1.92 1.85 1.73 1.65 1.68 1.67 1.61 1.57 1.56 1.58 1.60 1.61 1.53 1.47 1.41 1.42 1.57 1.61 1.58 1.69 1.77 1.74 1.83 2.03 2.12 2.14 2.14 2.12 1.95 1.89 2.00 2.04 2.05 2.08 2.05 2.11 2.13 2.05 1.83 1.61
2.09 2.10 1.93 1.76 1.77 1.81 1.76 1.69 1.66 1.69 1.70 1.62 1.51 1.45 1.42 1.41 1.52 1.52 1.45 1.40 1.49 1.59 1.62 1.72 1.77 1.74 1.82 2.00 2.17 2.14 2.08 2.06 1.99 1.90 1.98 2.13 2.16 2.16 2.14 2.14 2.10 2.07 1.92 1.72
1.79 1.84 1.78 1.68 1.58 1.59 1.61 1.57 1.62 1.66 1.69 1.64 1.54 1.47 1.47 1.54 1.71 1.84 1.90 1.83 1.72 1.64 1.61 1.63 1.65 1.67 1.74 1.86 1.94 1.94 1.96 1.90 1.77 1.64 1.72 1.83 1.90 1.94 1.99 1.95 1.96 1.95 1.87 1.70
1.59 1.72 1.73 1.66 1.63 1.50 1.54 1.54 1.57 1.59 1.59 1.65 1.65 1.60 1.56 1.62 1.75 1.91 2.09 2.12 1.99 1.84 1.71 1.61 1.68 1.64 1.74 1.84 1.83 1.81 1.78 1.73 1.62 1.46 1.46 1.61 1.66 1.73 1.80 1.79 1.77 1.74 1.66 1.56
1.73 1.75 1.70 1.59 1.65 1.70 1.66 1.66 1.65 1.68 1.55 1.49 1.55 1.63 1.72 1.76 1.86 1.96 2.00 2.01 1.96 1.88 1.74 1.60 1.49 1.47 1.55 1.69 1.80 1.76 1.72 1.71 1.66 1.47 1.44 1.59 1.67 1.77 1.75 1.71 1.70 1.69 1.60 1.56
1.72 1.66 1.57 1.47 1.49 1.52 1.47 1.47 1.50 1.60 1.67 1.60 1.67 1.78 1.87 1.85 1.89 2.06 2.18 2.07 1.80 1.72 1.66 1.64 1.54 1.53 1.52 1.65 1.75 1.73 1.71 1.71 1.76 1.65 1.59 1.62 1.69 1.76 1.70 1.63 1.59 1.56 1.57 1.61
1.67 1.64 1.62 1.59 1.56 1.46 1.31 1.29 1.39 1.50 1.62 1.73 1.81 1.88 1.94 1.99 2.03 2.06 2.00 2.05 1.90 1.91 1.78 1.65 1.59 1.60 1.59 1.58 1.58 1.66 1.68 1.69 1.79 1.76 1.70 1.71 1.80 1.84 1.83 1.76 1.68 1.61 1.59 1.60
1.63 1.67 1.62 1.61 1.64 1.56 1.41 1.36 1.33 1.45 1.56 1.60 1.71 1.93 2.03 2.02 2.10 2.31 2.12 1.77 1.69 1.78 1.75 1.70 1.68 1.62 1.52 1.37 1.46 1.61 1.65 1.69 1.72 1.68 1.58 1.55 1.59 1.63 1.62 1.54 1.51 1.53 1.53 1.52
1.73 1.68 1.65 1.65 1.63 1.53 1.50 1.47 1.46 1.50 1.47 1.46 1.56 1.76 1.99 2.09 2.00 1.91 1.92 1.82 1.65 1.55 1.44 1.50 1.51 1.47 1.48 1.41 1.49 1.61 1.66 1.71 1.70 1.61 1.54 1.50 1.52 1.53 1.51 1.48 1.45 1.44 1.46 1.48
1.75 1.69 1.62 1.62 1.65 1.64 1.57 1.55 1.61 1.60 1.54 1.55 1.54 1.60 1.72 1.88 1.97 1.82 1.60 1.50 1.44 1.30 1.21 1.24 1.24 1.29 1.30 1.33 1.36 1.46 1.64 1.75 1.72 1.56 1.45 1.45 1.45 1.42 1.37 1.32 1.34 1.43 1.47 1.45
1.77 1.75 1.71 1.66 1.62 1.63 1.62 1.67 1.81 1.82 1.85 1.92 1.79 1.65 1.68 1.67 1.68 1.75 1.63 1.45 1.36 1.28 1.15 1.17 1.16 1.14 1.13 1.22 1.25 1.29 1.42 1.61 1.67 1.58 1.43 1.42 1.40 1.39 1.38 1.36 1.30 1.32 1.36 1.36
1.83 1.79 1.72 1.67 1.61 1.54 1.63 1.75 1.86 1.91 2.00 2.10 2.10 1.92 1.79 1.66 1.64 1.68 1.66 1.59 1.44 1.31 1.24 1.21 1.16 1.13 1.14 1.14 1.11 1.10 1.20 1.35 1.43 1.46 1.50 1.51 1.52 1.51 1.46 1.39 1.30 1.25 1.26 1.26